{"data":{"norad_id":65319,"epoch":"2026-05-25T04:55:11.356320Z","epoch_age_seconds":53394,"freshness":"FRESH","line1":"1 65319U 25188E   26145.20499255  .00000999  00000+0  10184-3 0  9995","line2":"2 65319  97.7325 220.7275 0007877 173.8718 186.2599 14.92868726 40487","mean_motion":14.92868726,"eccentricity":0.0007877,"inclination_deg":97.7325,"raan_deg":220.7275,"arg_perigee_deg":173.8718,"mean_anomaly_deg":186.2599,"bstar":0.00010184,"rev_number":4048,"period_min":96.458581717251,"perigee_km":583.50788409745,"apogee_km":594.48390525972,"semimajor_km":6967.1328946786,"source":"CELESTRAK","updated_at":"2026-05-25T13:38:05.324436Z"}}